This is the latest recevied weather packets stored in our database for station/object KB0BS-13. If no packets are shown the sender has not sent any weather packets the latest 10 day(s).
| Time | Temp. | Humidity | Pressure | Rain* | Wind** | Luminosity | Snow |
|---|---|---|---|---|---|---|---|
| 1777463809 | 0.56° C | 99% | 1016.9 hPa | 0 mm | - | 74 W/m² | - |
| 1777463504 | 0° C | 99% | 1016.3 hPa | 0 mm | - | 58 W/m² | - |
| 1777463200 | 0° C | 99% | 1016.5 hPa | 0 mm | - | 39 W/m² | - |
| 1777462896 | 0° C | 99% | 1016.3 hPa | 0 mm | - | 29 W/m² | - |
| 1777462593 | 0° C | 99% | 1016.3 hPa | 0 mm | - | 22 W/m² | - |
| 1777462288 | 0° C | 99% | 1016.3 hPa | 0 mm | - | 17 W/m² | - |
| 1777461984 | 0° C | 99% | 1016.3 hPa | 0 mm | - | 17 W/m² | - |
| 1777461681 | 0° C | 99% | 1016.5 hPa | 0 mm | - | 19 W/m² | - |
| 1777461381 | 0° C | 99% | 1016.3 hPa | 0 mm | - | 22 W/m² | - |
| 1777461078 | 0° C | 99% | 1016.6 hPa | 0 mm | - | 22 W/m² | - |
| 1777460773 | 0° C | 99% | 1016.3 hPa | 0 mm | - | 19 W/m² | - |
| 1777460469 | 0° C | 98% | 1016.6 hPa | 0 mm | - | 16 W/m² | - |
| 1777460165 | 0.56° C | 98% | 1016.6 hPa | 0 mm | - | 14 W/m² | - |
| 1777459863 | 0.56° C | 98% | 1016.6 hPa | 0 mm | - | 11 W/m² | - |
| 1777459559 | 0° C | 98% | 1016.6 hPa | 0 mm | - | 8 W/m² | - |
| 1777459257 | 0° C | 98% | 1016.6 hPa | 0 mm | - | 6 W/m² | - |
| 1777458955 | 0° C | 99% | 1016.2 hPa | 0 mm | - | 4 W/m² | - |
| 1777458651 | 0° C | 99% | 1016.5 hPa | 0 mm | - | 3 W/m² | - |
| 1777458348 | 0° C | 99% | 1016.5 hPa | 0 mm | - | 2 W/m² | - |
| 1777458043 | 0° C | 99% | 1016.2 hPa | 0 mm | - | 1 W/m² | - |
| 1777457740 | 0° C | 99% | 1016.3 hPa | 0 mm | - | 1 W/m² | - |
| 1777457440 | 0° C | 99% | 1016.3 hPa | 0 mm | - | 0 W/m² | - |
| 1777457135 | 0° C | 99% | 1016.5 hPa | 0 mm | - | 0 W/m² | - |
| 1777456831 | 0° C | 99% | 1016 hPa | 0 mm | - | 0 W/m² | - |
| 1777456531 | 0° C | 99% | 1016.1 hPa | 0 mm | - | 0 W/m² | - |
* Rain latest hour (hover to see other rain measurements)
** Current wind speed in m/s (hover to see current wind gust speed)